AirNav   Air Wisconsin Up To $57,000 Bonus
 
 727 users online  

KGDW Gladwin Zettel Memorial Airport
Gladwin, Michigan, USA

GOING TO GLADWIN?


FAA INFORMATION EFFECTIVE 05 DECEMBER 2019

Location

FAA Identifier: GDW
Lat/Long: 43-58-14.1216N 084-28-30.0720W
43-58.235360N 084-28.501200W
43.9705893,-84.4750200
(estimated)
Elevation: 774 ft. / 235.9 m (surveyed)
Variation: 04W (1980)
From city: 1 mile SE of GLADWIN, MI
Time zone: UTC -5 (UTC -4 during Daylight Saving Time)
Zip code: 48624

Airport Operations

Airport use: Open to the public
Activation date: 04/1940
Control tower: no
ARTCC: CLEVELAND CENTER
FSS: LANSING FLIGHT SERVICE STATION
NOTAMs facility: LAN (NOTAM-D service available)
Attendance: 0900-1700
UNATTENDED MAJ HOL. FOR ATTENDANT & AFT HOURS CALL 989-578-2174, MGR CELL.
Wind indicator: lighted
Segmented circle: yes
Lights: ACTVT MIRL RY 09/27; PAPI & REIL RYS 09 & 27 - CTAF.
Beacon: white-green (lighted land airport)
Operates sunset to sunrise.

Airport Communications

CTAF/UNICOM: 122.8
GREAT LAKES APPROACH: 126.45
GREAT LAKES DEPARTURE: 126.45
  • APCH/DEP SVC PRVDD BY CLEVELAND ARTCC (ZOB) ON FREQS 126.525/285.525 (ALGONAC RCAG) WHEN GREAT LAKES APCH CTL CLSD.

Nearby radio navigation aids

VOR radial/distance  VOR name  Freq  Var
MOPr034/23.8MOUNT PLEASANT VOR/DME110.6005W
MBSr330/31.5SAGINAW VOR/DME112.9003W

Airport Services

Fuel available: 100LL JET-A
SELF SVC FUEL AVBL 24 HRS WITH CREDIT CARD.
Parking: tiedowns

Runway Information

Runway 9/27

Dimensions: 4699 x 75 ft. / 1432 x 23 m
Surface: asphalt, in good condition
Weight bearing capacity: 
Single wheel: 44.0
Double wheel: 60.0
Double tandem: 90.0
Runway edge lights: medium intensity
RUNWAY 9  RUNWAY 27
Latitude: 43-58.304538N43-58.335603N
Longitude: 084-28.971977W084-27.901978W
Elevation: 771.2 ft.772.6 ft.
Traffic pattern: leftleft
Runway heading: 092 magnetic, 088 true272 magnetic, 268 true
Markings: nonprecision, in good conditionnonprecision, in good condition
Visual slope indicator: 2-light PAPI on left (3.00 degrees glide path)2-light PAPI on left (3.00 degrees glide path)
Runway end identifier lights: yesyes
Touchdown point: yes, no lightsyes, no lights
Obstructions: 100 ft. trees, 2200 ft. from runway, 20:1 slope to clear50 ft. brush, 1400 ft. from runway, 24:1 slope to clear

Runway 15/33

Dimensions: 2580 x 150 ft. / 786 x 46 m
Surface: turf, in fair condition
Runway edge markings: 15/33 MKD WITH 3 FT YELLOW CONES
Operational restrictions: CLSD WHEN SNOW COVERED EXCP FOR SKI EQUIPPED ACFT.
RUNWAY 15  RUNWAY 33
Latitude: 43-58.276012N43-57.886137N
Longitude: 084-28.734625W084-28.501718W
Elevation: 772.6 ft.764.2 ft.
Traffic pattern: leftleft
Runway heading: 161 magnetic, 157 true341 magnetic, 337 true
Touchdown point: yes, no lightsyes, no lights

Airport Ownership and Management from official FAA records

Ownership: Publicly-owned
Owner: CITY/COUNTY OF GLADWIN
1000 W. CEDAR AVE
GLADWIN, MI 48624
Phone 989-426-9231
CITY HALL.
Manager: MICHAEL HARGRAVE
735 STATE ST
GLADWIN, MI 48624
Phone 989-426-4201

Airport Operational Statistics

Aircraft based on the field: 15
Single engine airplanes: 11
Multi engine airplanes: 2
Ultralights: 2
    
Aircraft operations: avg 85/week *
50% transient general aviation
50% local general aviation
* for 12-month period ending 31 December 2016

Additional Remarks

DEER & BIRDS ON & INVOF ARPT.
RDO CTL ACFT OPER NEAR WEST SIDE OF RY 15/33.
TERM. BLDG ACCESS,5-3-2-1-*.
FOR APCH/DEP CTC CLEVELAND ARTCC AT 440-774-0229 WHEN GREAT LAKES APCH CTL CLSD.
FOR CD CTC GREAT LAKES APCH AT 269-459-3345, WHEN APCH CLSD CTC CLEVELAND ARTCC AT 440-774-0490

Instrument Procedures

NOTE: All procedures below are presented as PDF files. If you need a reader for these files, you should download the free Adobe Reader.

NOT FOR NAVIGATION. Please procure official charts for flight.
FAA instrument procedures published for use from 05 December 2019 at 0900Z to 02 January 2020 at 0900Z.

 
IAPs - Instrument Approach Procedures
RNAV (GPS) RWY 09 **CHANGED**   download (195KB)
RNAV (GPS) RWY 27 **CHANGED**   download (216KB)
NOTE: Special Take-Off Minimums/Departure Procedures apply   download (122KB)

Other nearby airports with instrument procedures:

48D - Clare Municipal Airport (14 nm SW)
KIKW - Jack Barstow Airport (21 nm SE)
Y31 - West Branch Community Airport (21 nm NE)
KMOP - Mount Pleasant Municipal Airport (24 nm SW)
KHTL - Roscommon County - Blodgett Memorial Airport (25 nm N)
 
Loc | Ops | Rwys | IFR | FBO | Links
Com | Nav | Svcs | Stats | Notes
Area around KGDW (Gladwin Zettel Memorial Airport)
 
Road maps at: MapQuest Bing Google
 
Aerial photo
WARNING: Photo may not be current or correct
Aerial photo of KGDW (Gladwin Zettel Memorial Airport)
Photo by Carol Batten

Do you have a better or more recent aerial photo of Gladwin Zettel Memorial Airport that you would like to share? If so, please send us your photo.

 
Sectional chart

 
Airport distance calculator
Flying to Gladwin Zettel Memorial Airport? Find the distance to fly.

From to KGDW

Sunrise and sunset
Times for 10-Dec-2019
 Local
(UTC-5)
 Zulu
(UTC)
Morning civil twilight07:3012:30
Sunrise08:0313:03
Sunset16:5921:59
Evening civil twilight17:3222:32

Current date and time
Zulu (UTC)  10-Dec-2019 05:53:03
Local (UTC-5)  10-Dec-2019 00:53:03
 
METAR
KIKW 
21nm SE 
100535Z AUTO 28013G19KT 2 1/2SM -SN SCT007 OVC017 01/00 A2956 RMK AO2 VIS 1 1/2V5 T00101005
KY31 
21nm NE 
100536Z AUTO 30009G26KT 10SM BKN021 BKN025 BKN043 00/M02 A2952 RMK AO2 T10051023
KMOP 
24nm SW 
100536Z AUTO 28011G19KT 10SM SCT016 SCT023 OVC033 01/M01 A2958 RMK AO2 T00131008
KHTL 
24nm N 
100516Z AUTO 32011G22KT 3SM -SN BR BKN014 OVC021 M03/M05 A2953 RMK AO2 P0000 T10281050
KMBS 
31nm SE 
100537Z AUTO 27017G28KT 10SM FEW024 SCT029 OVC050 03/M01 A2956 RMK AO2 PK WND 25034/0500 T00331011
KAMN 
40nm S 
100536Z AUTO 27014G17KT 10SM SCT014 BKN027 OVC046 02/00 A2961 RMK AO2 T00170000
TAF
KMBS 
31nm SE 
100319Z 1003/1024 26018G28KT P6SM -SHRA BKN025 OVC035 FM100500 29016G26KT P6SM OVC022 FM101100 28012G22KT P6SM SCT030 OVC040 FM101900 27014KT P6SM BKN045 FM102300 26012KT P6SM SCT045
NOTAMs
Click for the latest NOTAMs
NOTAMs are issued by the DoD/FAA and will open in a separate window not controlled by AirNav.

 

 
 

FBO, Fuel Providers, and Aircraft Ground Support

  
 Business Name 
 
 Contact 
 
 Services / Description 
 
Fuel Prices
 
Comments
  
Gladwin Zettel Memorial Airport 989-426-4201 Aviation fuel

More info about Gladwin Zettel Memorial Airport
Avfuel
100LL Jet A
AS $4.40 --- 
FS $4.40 $4.50 
 Updated 20-Nov-2019
 
   4 read write
AS=Assisted/Self Service
FS=Full service
Update Fuel Prices
 

Would you like to see your business listed on this page?

 If your business provides an interesting product or service to pilots, flight crews, aircraft, or users of the Gladwin Zettel Memorial Airport, you should consider listing it here.  To start the listing process, click on the button below
 
Add a business
 

Other Pages about Gladwin Zettel Memorial Airport

Page from the Michigan Airport Directory (PDF)
 
Update a link
 
Copyright © AirNav, LLC. All rights reserved. Privacy Policy  Contact